Wind_Speed
3 3 3 3 4 3 3 3 3 4 4 4 4 3 4 3 3 3 3 3 3 3 3 3 3 4 4 5 5 5 6 6 6 5 5 6 6 6 6 7 7 7 7
3 3 3 3 3 3 3 4 4 4 4 4 4 4 3 3 3 3 3 3 4 4 5 5 5 5 5 6 6 6 7 7 6 7 7 8 8 8 8 9 9 9 10
3 2 2 3 3 3 4 4 4 4 4 4 3 4 4 4 4 4 4 4 4 5 5 5 5 5 5 6 6 7 7 8 8 9 9 10 10 11 10 11 11 11 11
2 2 2 2 2 3 4 4 5 4 4 4 4 4 4 5 5 5 5 5 5 6 5 5 6 6 7 7 7 8 8 9 9 9 10 11 11 12 12 12 13 13 13
2 2 2 2 3 3 4 4 5 5 4 4 5 5 5 6 6 6 7 7 7 7 7 7 7 7 8 8 9 10 10 11 11 11 12 12 12 13 13 13 14 14 14
2 3 3 3 3 3 4 4 5 5 5 5 5 6 5 6 7 8 8 8 8 8 8 9 9 9 9 10 10 11 11 12 13 13 13 13 13 14 14 14 15 15 15
3 3 3 3 3 3 4 4 5 5 5 5 6 6 7 7 8 9 9 9 9 10 10 10 10 11 11 12 12 12 13 14 14 14 15 15 15 15 15 15 16 16 17
2 2 2 2 3 3 4 4 5 5 6 7 7 7 8 8 9 10 10 11 11 11 12 12 12 12 13 13 13 13 14 14 14 14 15 16 17 17 16 16 17 17 18
1 1 2 2 3 3 3 4 5 6 7 7 7 7 8 8 9 10 10 11 12 12 12 12 13 13 13 14 14 14 15 15 16 16 16 17 17 17 17 17 18 18 18
1 0 2 2 3 3 3 4 5 6 7 7 7 8 8 8 9 10 11 11 11 12 12 12 12 13 14 14 14 15 16 17 17 17 17 16 16 17 18 18 18 18 19
2 2 2 3 3 4 4 5 6 7 7 7 8 8 8 9 9 10 11 12 12 12 12 12 13 13 14 14 14 15 16 16 16 16 16 16 16 17 18 18 19 19 20
3 3 3 3 4 5 5 5 6 7 8 9 9 9 9 10 10 10 11 12 12 13 13 13 13 14 15 15 15 16 16 16 16 16 16 17 17 18 19 19 19 20 20
4 5 4 4 5 5 6 6 7 8 9 9 9 10 10 10 11 12 12 12 13 14 14 14 14 15 14 15 16 16 16 16 17 17 18 18 18 18 19 20 21 21 21
5 6 6 6 6 7 7 8 9 9 10 10 10 11 11 12 12 12 13 13 14 14 14 14 15 15 15 16 16 16 16 16 16 17 17 17 17 18 19 20 21 21 21
6 6 7 7 7 7 8 8 9 10 10 10 10 11 12 13 13 13 13 13 14 14 15 15 15 15 16 16 16 16 16 16 17 18 18 18 18 19 19 20 21 22 22
8 8 7 8 8 8 9 9 10 10 10 10 10 10 11 12 13 13 13 13 14 14 15 15 15 16 16 16 16 17 17 18 19 19 19 19 20 21 21 22 22 23 23
8 8 8 8 8 9 10 10 10 10 11 11 11 12 11 12 12 13 13 13 13 14 15 15 15 16 16 17 17 17 18 19 19 19 19 20 21 22 22 23 23 24 24
8 9 9 9 9 10 11 12 12 11 11 11 12 12 13 13 13 13 14 15 15 15 15 15 16 17 17 17 18 19 19 19 19 19 20 21 21 22 23 24 25 24 24
10 10 10 10 11 11 12 12 11 11 11 11 12 12 13 14 14 14 15 15 16 16 16 17 18 18 18 19 19 19 19 19 20 20 21 22 23 23 24 26 26 26 26
11 11 11 12 12 12 12 12 12 11 11 12 13 14 14 15 15 15 16 16 17 18 18 18 19 19 20 20 20 20 20 20 21 22 23 24 25 25 26 26 26 26 26
13 13 13 13 12 13 13 13 13 13 13 13 14 15 16 16 17 17 17 18 19 19 19 19 19 20 20 20 20 21 21 22 22 23 24 25 26 26 26 26 26 26 27
15 15 15 15 15 15 15 14 14 14 15 16 16 16 17 17 18 18 19 20 20 20 19 20 20 21 21 21 22 23 23 24 24 25 26 27 27 28 28 27 27 27 28
17 17 17 17 17 17 17 17 17 17 18 18 17 17 18 19 19 19 19 20 20 20 21 21 21 22 23 23 24 25 25 26 26 27 28 28 29 29 29 29 29 29 30
20 20 19 19 19 19 19 19 20 20 21 21 21 20 20 20 20 21 21 21 21 22 23 23 23 24 25 25 26 27 27 27 28 29 29 30 30 30 30 30 31 31 31
22 21 20 20 21 21 22 21 21 22 23 24 23 23 23 22 22 23 23 23 23 24 24 24 25 25 26 27 27 28 28 28 29 30 30 30 30 30 31 31 31 32 32
23 23 22 22 22 23 23 23 24 24 25 24 25 25 24 24 24 24 25 25 25 25 26 26 27 28 28 28 28 29 29 30 30 31 31 31 31 31 31 31 32 33 33
Wind_Direction
135 148 161 161 167 164 159 163 161 166 169 173 177 188 199 200 207 212 212 216 222 226 230 236 238 243 243 244 246 238 233 236 238 244 255 260 264 267 271 274 270 271 270
141 142 147 162 172 172 170 170 173 176 175 183 198 209 216 224 227 233 229 229 238 244 244 244 249 255 255 253 249 245 239 239 244 252 262 265 265 265 269 271 269 268 271
151 152 154 158 178 187 181 181 182 185 190 201 212 225 233 231 236 240 245 250 254 251 248 244 249 255 257 258 252 247 246 249 255 263 265 266 267 267 269 270 269 269 269
138 148 146 154 179 198 197 194 197 205 208 213 223 237 246 242 246 250 255 257 259 254 252 253 255 256 260 261 256 254 255 257 262 266 267 268 269 269 269 270 269 268 269
155 162 174 185 200 207 209 209 217 221 222 226 235 248 254 249 253 257 255 258 258 256 260 264 263 262 262 263 261 261 262 262 264 266 269 269 269 269 270 271 271 270 270
162 170 183 190 201 209 216 218 224 232 238 241 247 254 259 259 257 257 260 260 259 260 263 264 266 266 266 266 265 265 266 266 266 266 268 268 268 269 269 271 271 272 272
169 170 180 190 199 210 222 228 232 233 241 250 256 258 258 261 259 260 261 262 262 264 265 267 266 265 266 267 267 266 268 269 268 268 268 269 269 271 271 273 274 274 274
150 172 193 199 214 228 237 237 236 244 252 258 261 262 262 262 262 262 262 263 266 264 265 267 267 269 268 269 269 269 269 268 269 271 271 272 272 271 272 273 276 276 274
134 178 208 228 232 239 246 245 246 251 257 262 268 270 265 265 266 265 264 264 268 268 267 269 270 272 272 271 270 270 269 269 270 271 272 274 273 270 271 273 276 276 277
12 240 229 235 238 252 263 259 256 259 263 266 269 268 268 267 266 272 273 272 271 269 266 271 273 272 273 275 274 274 273 272 270 272 272 274 273 271 272 275 276 276 277
345 304 278 266 261 265 270 264 261 263 266 269 270 272 272 270 268 271 275 277 274 273 273 273 275 275 277 278 277 277 278 277 274 274 273 272 273 273 273 275 275 277 279
359 335 303 287 283 279 273 270 268 270 270 269 271 274 277 274 274 274 275 277 277 276 275 274 275 277 278 281 282 278 278 278 276 276 275 275 274 275 275 274 274 276 278
352 343 330 301 293 289 278 274 275 275 275 274 275 277 278 277 277 276 276 276 277 277 276 275 274 277 279 279 281 280 279 278 276 276 278 277 277 277 277 278 277 277 278
340 340 337 325 302 291 285 280 278 274 275 274 276 278 280 281 280 278 277 277 277 276 276 277 278 279 283 281 279 281 279 280 279 278 281 278 277 280 280 279 280 279 280
338 333 330 325 315 305 295 289 286 281 278 276 276 278 279 280 280 278 277 278 277 275 276 278 280 279 282 282 281 279 278 277 277 279 280 280 279 281 283 284 283 281 281
337 331 326 325 322 314 302 296 292 285 284 282 281 284 284 283 280 280 279 279 277 276 274 276 279 280 281 280 281 279 280 280 280 280 281 282 282 282 283 285 285 283 284
344 345 336 327 321 320 318 309 301 293 288 288 287 286 289 291 287 283 282 283 282 279 277 277 279 280 283 287 284 284 283 283 282 281 284 286 285 284 285 286 286 284 284
338 338 333 328 323 323 321 318 307 298 295 294 294 291 290 291 291 289 286 284 283 280 278 279 282 285 286 287 285 284 284 282 281 283 284 285 285 286 286 285 285 284 285
326 323 323 323 321 320 320 320 314 302 297 296 296 296 296 295 293 289 287 286 286 282 279 279 282 285 287 286 287 286 285 283 283 285 285 285 284 285 285 284 284 286 286
319 315 314 315 314 315 316 315 312 304 298 298 298 298 299 298 298 294 289 288 287 284 281 281 283 285 286 287 287 287 287 285 285 286 286 287 286 286 285 285 286 286 287
314 310 308 311 311 313 314 313 312 306 299 297 297 298 297 296 295 295 291 289 288 285 284 284 283 283 285 287 287 287 287 286 285 286 286 287 287 287 287 287 287 286 287
310 308 305 305 305 307 308 309 308 306 303 299 297 296 296 295 295 294 293 292 289 286 285 286 285 284 285 286 285 286 285 286 286 286 287 288 288 288 288 288 287 288 289
304 304 301 301 303 305 305 304 304 304 304 301 297 295 295 295 294 294 294 292 291 289 287 286 286 287 286 287 287 287 286 287 287 287 288 288 288 288 288 287 288 289 290
298 298 297 296 297 299 302 301 300 301 302 301 298 297 295 295 294 293 293 292 292 290 288 286 287 288 289 289 288 288 287 287 287 287 288 288 288 287 287 287 287 289 290
296 294 294 294 294 295 297 298 298 299 301 301 299 299 295 293 294 293 292 292 291 292 291 289 289 288 288 287 287 288 287 287 287 288 288 288 288 288 288 288 288 288 290
295 291 291 293 293 295 296 296 296 297 298 300 299 300 297 294 295 295 294 293 292 291 292 292 291 290 289 288 287 287 288 288 288 288 288 287 287 287 288 288 289 289 289
Height
5895 5895 5895 5896 5896 5897 5897 5898 5898 5899 5899 5900 5900 5901 5901 5901 5901 5901 5901 5902 5902 5902 5902 5901 5901 5901 5900 5900 5900 5900 5901 5901 5901 5901 5901 5900 5900 5900 5899 5899 5899 5898 5898
5895 5896 5896 5896 5896 5897 5897 5897 5898 5899 5899 5900 5900 5901 5901 5901 5901 5901 5901 5901 5901 5901 5901 5901 5900 5900 5900 5899 5899 5899 5899 5899 5900 5900 5899 5899 5899 5898 5898 5897 5897 5897 5896
5895 5896 5896 5896 5896 5896 5897 5897 5898 5898 5899 5900 5900 5900 5900 5900 5900 5900 5900 5900 5900 5900 5900 5899 5899 5899 5899 5898 5898 5898 5898 5898 5898 5898 5898 5897 5897 5896 5896 5895 5895 5894 5894
5895 5896 5896 5896 5896 5896 5897 5897 5898 5898 5899 5899 5899 5899 5899 5899 5899 5899 5899 5899 5899 5899 5899 5898 5898 5898 5897 5897 5897 5896 5896 5896 5896 5896 5895 5895 5894 5894 5893 5893 5892 5892 5891
5895 5896 5896 5896 5896 5896 5897 5897 5897 5898 5898 5898 5898 5898 5898 5898 5898 5898 5898 5898 5898 5897 5897 5897 5896 5896 5896 5895 5895 5894 5894 5894 5894 5893 5893 5892 5892 5891 5891 5890 5890 5889 5889
5895 5895 5895 5895 5896 5896 5896 5897 5897 5897 5897 5897 5897 5897 5897 5897 5897 5897 5896 5896 5896 5895 5895 5895 5894 5894 5893 5893 5892 5892 5892 5891 5890 5890 5890 5889 5889 5888 5888 5887 5887 5886 5886
5894 5895 5895 5895 5895 5895 5896 5896 5896 5896 5896 5896 5896 5896 5895 5895 5895 5895 5894 5894 5894 5893 5892 5892 5892 5891 5890 5890 5890 5889 5889 5888 5887 5886 5886 5886 5885 5885 5884 5884 5883 5883 5882
5894 5894 5894 5894 5894 5894 5894 5894 5895 5895 5895 5894 5894 5894 5894 5894 5893 5892 5892 5891 5891 5890 5890 5889 5888 5888 5887 5887 5887 5886 5886 5885 5884 5883 5883 5882 5881 5881 5881 5880 5879 5878 5878
5894 5894 5894 5894 5893 5893 5893 5893 5893 5893 5893 5893 5892 5892 5892 5891 5891 5890 5890 5889 5888 5887 5887 5886 5885 5884 5884 5883 5883 5882 5882 5881 5881 5880 5879 5878 5877 5877 5876 5876 5875 5874 5873
5894 5893 5893 5893 5892 5892 5892 5891 5891 5891 5891 5890 5890 5890 5890 5889 5889 5888 5887 5887 5886 5885 5884 5884 5882 5881 5880 5879 5879 5878 5878 5877 5876 5875 5874 5874 5873 5872 5872 5871 5870 5869 5869
5893 5892 5892 5892 5891 5891 5890 5890 5890 5889 5889 5888 5888 5887 5887 5886 5886 5885 5885 5884 5883 5882 5881 5880 5879 5878 5877 5875 5875 5874 5874 5873 5872 5871 5870 5869 5869 5868 5867 5867 5866 5865 5864
5892 5891 5891 5890 5890 5889 5889 5888 5888 5887 5887 5886 5886 5885 5884 5883 5883 5882 5881 5880 5880 5879 5878 5877 5876 5875 5874 5872 5871 5870 5870 5869 5868 5867 5865 5865 5864 5863 5862 5862 5861 5860 5859
5891 5890 5889 5889 5888 5887 5887 5886 5885 5885 5884 5884 5883 5882 5881 5880 5880 5879 5878 5877 5876 5875 5874 5874 5873 5872 5871 5869 5868 5867 5866 5865 5863 5862 5861 5860 5859 5859 5857 5857 5856 5855 5854
5890 5889 5888 5887 5886 5885 5884 5883 5883 5882 5881 5881 5880 5879 5878 5877 5876 5875 5875 5874 5872 5871 5870 5870 5869 5868 5867 5865 5864 5863 5861 5860 5859 5858 5857 5855 5855 5854 5852 5852 5851 5850 5849
5889 5887 5886 5885 5884 5883 5882 5881 5880 5879 5878 5877 5876 5876 5875 5874 5873 5872 5871 5870 5869 5868 5867 5866 5865 5864 5863 5862 5860 5859 5857 5856 5855 5854 5853 5851 5850 5849 5848 5847 5846 5844 5843
5887 5886 5884 5883 5882 5881 5880 5878 5877 5876 5875 5874 5873 5872 5871 5870 5868 5868 5866 5865 5864 5864 5862 5862 5861 5860 5858 5857 5855 5854 5853 5851 5850 5849 5848 5846 5845 5844 5843 5841 5840 5838 5837
5886 5884 5883 5882 5880 5879 5877 5876 5874 5873 5872 5871 5870 5869 5868 5866 5865 5864 5863 5861 5860 5859 5858 5857 5856 5855 5854 5853 5851 5849 5848 5847 5845 5844 5843 5841 5840 5839 5837 5835 5834 5832 5830
5884 5882 5881 5879 5878 5877 5875 5873 5871 5870 5868 5867 5866 5865 5864 5863 5861 5860 5859 5857 5856 5855 5854 5853 5852 5850 5849 5848 5846 5844 5843 5841 5840 5839 5837 5835 5834 5833 5831 5830 5828 5826 5824
5882 5880 5879 5877 5876 5874 5872 5870 5867 5866 5865 5864 5863 5862 5860 5859 5857 5856 5854 5853 5851 5850 5849 5848 5846 5845 5844 5842 5841 5839 5838 5836 5835 5833 5831 5830 5828 5826 5825 5823 5821 5819 5817
5879 5878 5876 5874 5873 5871 5869 5867 5864 5863 5862 5860 5859 5858 5856 5855 5853 5852 5850 5848 5847 5845 5843 5842 5841 5840 5838 5837 5835 5834 5832 5830 5829 5827 5825 5824 5821 5819 5818 5816 5814 5812 5810
5876 5875 5873 5871 5869 5868 5866 5864 5861 5859 5858 5856 5855 5853 5852 5850 5849 5847 5845 5843 5841 5840 5838 5837 5835 5834 5833 5831 5830 5828 5826 5824 5823 5821 5819 5817 5815 5812 5810 5808 5806 5804 5802
5872 5871 5869 5867 5866 5864 5862 5860 5858 5856 5854 5852 5850 5849 5847 5846 5844 5842 5840 5838 5836 5835 5833 5831 5830 5828 5827 5825 5824 5822 5820 5818 5816 5814 5812 5810 5807 5805 5803 5801 5799 5796 5794
5868 5866 5864 5863 5861 5860 5858 5856 5854 5852 5850 5848 5845 5843 5842 5840 5838 5836 5834 5833 5831 5829 5827 5826 5824 5822 5820 5819 5817 5815 5813 5811 5809 5806 5804 5802 5799 5797 5795 5793 5790 5788 5786
5863 5861 5859 5858 5856 5854 5853 5851 5849 5847 5845 5843 5841 5839 5837 5834 5832 5830 5829 5827 5825 5823 5821 5819 5817 5815 5813 5811 5809 5807 5805 5803 5800 5798 5796 5794 5791 5789 5786 5784 5782 5779 5777
5858 5856 5854 5852 5850 5849 5847 5845 5844 5842 5839 5837 5834 5833 5830 5828 5826 5824 5822 5820 5818 5816 5814 5812 5810 5808 5805 5803 5801 5799 5796 5794 5792 5790 5787 5785 5783 5780 5778 5775 5772 5770 5767
5852 5850 5848 5846 5844 5843 5841 5840 5838 5835 5833 5830 5828 5826 5823 5821 5819 5817 5815 5813 5811 5809 5807 5805 5802 5800 5797 5795 5793 5790 5788 5786 5783 5781 5778 5776 5773 5771 5769 5766 5764 5761 5758